Aérodrome :
LOGIN :

S'inscrire | Disclaimer

   EN    FR    IT 

 










Légende :    VFR   VFR Marginal   IFR   IFR Intensif   IFR Très Intensif
Visi : 
Plafond : 
>= 8 km
>= 3000ft
5 à 8 km
1000 à 3000 ft
1500m à 5 km
500 à 1000 ft
800 à 1500m
200 à 500 ft
< 800m
< 200 ft
Symboles :   Orages  Brouillard  Fortes neiges  Fortes précipitations  Vent > 20 kt
SIGMETs :   Divers  Orages  Givrage  Turbulence  Onde Orograph.  Cendres Volcan.







- Altitude de l'aérodrome : 156 ft
- Code IATA : LCC


LIBN - Lecce Galatine (military)

DERNIER METAR :
  • 212055Z VRB02KT CAVOK 21/18 Q1015 RMK SKC VIS MIN 9999 WIND THR14 VRB02KT WIND THR32 VRB02KT BLU

METARs EXPIRÉS :
  • 211955Z VRB03KT CAVOK 23/18 Q1015 RMK SCT SCT110 VIS MIN 9999 WIND THR14 VRB02KT WIND THR32 VRB02KT BLU
  • 211855Z VRB03KT 9999 FEW025TCU 25/18 Q1014 RMK SCT SCT110 VIS MIN 9999 WIND THR14 VRB02KT WIND THR32 VRB03KT BLU

Prévision TAF périmée.
Pas de NOTAMs connus pour ce terrain.



MET'MAP, la Météo Aéronautique d'un coup d'oeil ! - Copyright ORBIFLY Décembre 2007 - Disclaimer

ORBIFLY MET'MAP TEAM :

Programmation & Développement : Alexandra Zaïnal
Conception & Développement : Baudouin d'Aumeries
Co-Programmation & Développement : Marc-Olivier Méhu
Soutien technique & logistique : Manuel Goepfert

Contact : metmap@orbifly.com




SOURCES & CREDITS :

   NOAA